CAPE
0 0 1 1 0 0 0 0 0 0 0 3 22 50 89 190 166 96 97 78 83 123 154 118 90 180 157 129 170 103 44 35 34 25 44 45 21 34 39 23 26 2 0
0 0 6 9 5 0 0 0 0 0 0 0 42 52 68 144 64 52 23 13 36 77 50 42 59 58 84 158 81 94 86 3 8 16 7 10 19 29 10 5 2 6 0
0 0 16 20 17 1 0 0 0 0 0 0 88 96 119 111 114 91 10 8 12 40 60 26 29 34 67 92 64 44 28 16 17 25 25 4 8 2 8 1 0 0 0
0 0 15 11 0 0 0 0 0 0 0 71 135 112 129 70 1 41 3 5 43 29 18 25 29 12 46 60 32 48 59 24 13 15 26 2 1 4 0 0 0 0 0
0 0 10 0 0 0 0 0 0 3 44 97 123 115 143 57 9 0 2 8 30 10 5 20 29 4 5 27 31 21 30 18 5 4 6 3 1 1 0 0 1 0 0
0 0 0 0 0 0 0 0 0 0 62 163 134 123 109 6 0 0 0 2 27 22 12 1 1 0 0 0 2 2 16 11 2 3 5 0 3 50 35 3 0 0 0
0 0 0 0 0 0 0 0 0 12 63 100 89 146 159 0 0 0 0 4 6 1 13 2 2 3 14 1 0 0 5 6 19 43 44 24 29 57 18 2 0 0 0
0 0 0 0 0 0 0 1 0 6 17 18 39 152 85 0 0 0 0 2 1 1 13 4 10 13 6 31 41 54 45 40 39 42 56 37 82 78 0 0 0 11 5
0 0 0 0 0 0 0 0 0 0 0 0 12 71 72 4 0 2 11 0 1 8 36 13 3 11 0 17 71 40 39 5 0 0 0 0 0 3 0 0 0 12 35
0 0 0 0 0 0 0 0 0 0 0 0 8 85 36 2 0 3 56 8 4 6 26 4 2 8 1 15 98 53 24 0 0 0 0 0 0 0 0 25 21 68 111
0 0 0 0 0 0 0 0 0 0 0 0 0 0 5 4 0 0 3 14 26 22 8 30 23 0 0 0 0 0 0 0 0 13 0 1 0 0 0 6 57 104 58
0 0 0 0 0 0 0 0 0 0 0 0 0 0 0 1 0 0 0 13 15 8 12 15 14 0 0 0 0 0 0 0 0 0 0 4 0 0 0 0 0 0 0
0 0 0 0 0 0 0 0 0 0 0 0 0 0 0 0 0 0 0 0 0 27 13 3 0 0 0 0 0 0 0 0 0 0 0 0 0 0 0 0 0 0 0
0 0 0 0 0 0 0 0 0 0 0 0 0 0 0 0 0 0 0 0 0 0 0 0 0 0 0 0 0 0 0 0 0 0 0 0 0 0 0 0 0 0 0
0 0 0 0 0 0 0 0 0 0 0 0 0 0 0 0 0 0 0 0 0 0 0 0 0 0 0 0 0 0 0 0 0 0 0 0 0 0 0 0 0 0 0
0 0 0 0 0 0 0 0 0 0 0 0 0 0 0 0 0 0 0 0 0 0 0 0 0 0 0 0 0 0 0 0 0 0 0 0 0 0 0 0 0 0 0
0 0 0 0 0 0 0 0 0 0 0 0 0 0 0 0 0 0 0 0 0 0 0 0 0 0 0 0 0 0 0 0 0 0 0 0 0 0 0 0 0 0 0
0 0 0 0 0 0 0 0 0 0 0 0 0 0 0 0 0 0 0 0 0 0 0 0 0 0 0 0 0 0 0 0 0 0 0 0 0 0 0 0 0 0 0
0 0 0 0 0 0 0 0 0 0 0 0 0 0 0 0 0 0 0 0 0 0 0 0 0 0 0 0 0 0 0 0 0 0 0 0 0 0 0 0 0 0 0
0 0 0 0 0 0 0 0 0 0 0 0 0 0 0 0 0 0 0 0 0 0 0 0 0 0 0 0 0 0 0 0 0 0 0 0 0 0 0 0 0 0 0
0 0 0 0 0 0 0 0 0 0 0 0 0 0 0 0 0 0 0 0 0 0 0 0 0 0 0 0 0 0 0 0 0 0 0 0 0 0 0 0 0 0 0
0 0 0 0 0 0 0 0 0 0 0 0 0 0 0 0 0 0 0 0 0 0 0 0 0 0 0 0 0 0 0 0 0 0 0 0 0 0 0 0 0 0 0
0 0 0 0 0 0 0 0 0 0 0 0 0 0 0 0 0 0 0 0 0 0 0 0 0 0 0 0 0 0 0 0 0 0 0 0 0 0 0 0 0 0 0
0 0 0 0 0 0 0 0 0 0 0 0 0 0 0 0 0 0 0 0 0 0 0 0 0 0 0 0 0 0 0 0 0 0 0 0 0 0 0 0 0 0 0
0 0 0 0 0 0 0 0 0 0 0 0 0 0 0 0 0 0 0 0 0 0 0 0 0 0 0 0 0 0 0 0 0 0 0 0 0 0 0 0 0 0 0
0 0 0 0 0 0 0 0 0 0 0 0 0 0 0 0 0 0 0 0 0 0 0 0 0 0 0 0 0 0 0 0 0 0 0 0 0 0 0 0 0 0 0
CIN
-0 -0 -13 -5 -0 -0 -0 -0 -0 -0 -0 -5 -28 -22 -22 -10 -15 -30 -46 -32 -31 -16 -16 -31 -21 -14 -9 -3 -1 -9 -31 -27 -23 -0 -0 -1 -7 -6 -0 -10 -7 -41 -0
-0 -0 -27 -43 -45 -0 -0 -0 -0 -0 -0 -0 -20 -19 -20 -13 -19 -31 -50 -67 -40 -29 -46 -38 -14 -20 -23 -3 -5 -1 -22 -19 -24 -9 -13 -1 -0 -1 -8 -18 -27 -60 -0
-0 -0 -29 -36 -37 -17 -0 -0 -0 -0 -0 -0 -11 -10 -6 -5 -7 -7 -46 -46 -55 -44 -28 -29 -21 -23 -5 -0 -0 -4 -13 -13 -12 -14 -1 -8 -12 -18 -30 -19 -35 -0 -0
-0 -0 -18 -31 -0 -0 -0 -0 -0 -0 -0 -14 -9 -8 -5 -11 -0 -13 -2 -27 -25 -34 -46 -30 -22 -30 -1 -1 -4 -0 -2 -1 -30 -12 -3 -0 -0 -7 -0 -0 -0 -0 -0
-0 -0 -21 -1 -0 -0 -0 -0 -0 -15 -19 -3 -7 -13 -6 -18 -67 -0 -0 -57 -29 -18 -51 -42 -6 -34 -42 -12 -7 -2 -1 -1 -12 -9 -6 -21 -0 -0 -35 -0 -34 -0 -0
-0 -0 -0 -0 -0 -0 -0 -0 -0 -0 -19 -3 -7 -9 -9 -39 -0 -0 -0 -1 -34 -24 -32 -0 -0 -1 -0 -0 -25 -19 -14 -35 -0 -36 -35 -0 -47 -20 -28 -46 -0 -0 -0
-0 -0 -0 -0 -0 -0 -0 -0 -0 -45 -19 -9 -17 -8 -3 -0 -0 -0 -0 -0 -0 -11 -28 -0 -12 -0 -14 -2 -0 -0 -26 -31 -36 -27 -9 -29 -31 -22 -51 -14 -0 -0 -0
-0 -0 -0 -0 -0 -0 -0 -60 -0 -67 -32 -24 -18 -2 -5 -0 -0 -0 -0 -0 -1 -12 -22 -20 -47 -19 -27 -2 -1 -0 -1 -15 -28 -16 -17 -25 -24 -39 -0 -0 -0 -91 -61
-0 -0 -0 -0 -0 -0 -0 -0 -0 -0 -0 -0 -9 -22 -10 -53 -0 -48 -37 -2 -1 -22 -19 -9 -15 -10 -0 -45 -2 -16 -15 -34 -0 -0 -0 -0 -0 -12 -0 -0 -0 -39 -37
-0 -0 -0 -0 -0 -0 -0 -0 -0 -0 -0 -0 -59 -26 -35 -67 -0 -64 -0 -14 -1 -0 -43 -19 -58 -49 -83 -57 -17 -24 -24 -0 -0 -0 -0 -0 -0 -0 -0 -79 -80 -30 -37
-0 -0 -0 -0 -0 -0 -0 -0 -0 -0 -0 -0 -0 -0 -31 -60 -0 -0 -54 -31 -16 -17 -2 -0 -25 -0 -0 -0 -0 -0 -0 -0 -0 -102 -0 -38 -35 -0 -0 -129 -136 -73 -63
-0 -0 -0 -0 -0 -0 -0 -0 -0 -0 -0 -0 -0 -0 -0 -126 -0 -0 -0 -49 -54 -72 -56 -27 -57 -0 -0 -0 -0 -0 -0 -0 -0 -0 -7 -51 -0 -0 -0 -0 -0 -0 -0
-0 -0 -0 -0 -0 -0 -0 -0 -0 -0 -0 -0 -0 -0 -0 -0 -0 -0 -0 -0 -4 -136 -173 -14 -0 -0 -0 -0 -0 -0 -0 -0 -0 -0 -0 -0 -0 -0 -0 -0 -0 -0 -0
-0 -0 -0 -0 -0 -0 -0 -0 -0 -0 -0 -0 -0 -0 -0 -0 -0 -0 -0 -0 -0 -0 -0 -0 -0 -0 -0 -0 -0 -0 -0 -0 -0 -0 -0 -0 -0 -0 -0 -0 -0 -0 -0
-0 -0 -0 -0 -0 -0 -0 -0 -0 -0 -0 -0 -0 -0 -0 -0 -0 -0 -0 -0 -0 -0 -0 -0 -0 -0 -0 -0 -0 -0 -0 -0 -0 -0 -0 -0 -0 -0 -0 -0 -0 -0 -0
-0 -0 -0 -0 -0 -0 -0 -0 -0 -0 -0 -0 -0 -0 -0 -0 -0 -0 -0 -0 -0 -0 -0 -0 -0 -0 -0 -0 -0 -0 -0 -0 -0 -0 -0 -0 -0 -0 -0 -0 -0 -0 -0
-0 -0 -0 -0 -0 -0 -0 -0 -0 -0 -0 -0 -0 -0 -0 -0 -0 -0 -0 -0 -0 -0 -0 -0 -0 -0 -0 -0 -0 -0 -0 -0 -0 -0 -0 -0 -0 -0 -0 -0 -0 -0 -0
-0 -0 -0 -0 -0 -0 -0 -0 -0 -0 -0 -0 -0 -0 -0 -0 -0 -0 -0 -0 -0 -0 -0 -0 -0 -0 -0 -0 -0 -0 -0 -0 -0 -0 -0 -0 -0 -0 -0 -0 -0 -0 -0
-0 -0 -0 -0 -0 -0 -0 -0 -0 -0 -0 -0 -0 -0 -0 -0 -0 -0 -0 -0 -0 -0 -0 -0 -0 -0 -0 -0 -0 -0 -0 -0 -0 -0 -0 -0 -0 -0 -0 -0 -0 -0 -0
-0 -0 -0 -0 -0 -0 -0 -0 -0 -0 -0 -0 -0 -0 -0 -0 -0 -0 -0 -0 -0 -0 -0 -0 -0 -0 -0 -0 -0 -0 -0 -0 -0 -0 -0 -0 -0 -0 -0 -0 -0 -0 -0
-0 -0 -0 -0 -0 -0 -0 -0 -0 -0 -0 -0 -0 -0 -0 -0 -0 -0 -0 -0 -0 -0 -0 -0 -0 -0 -0 -0 -0 -0 -0 -0 -0 -0 -0 -0 -0 -0 -0 -0 -0 -0 -0
-0 -0 -0 -0 -0 -0 -0 -0 -0 -0 -0 -0 -0 -0 -0 -0 -0 -0 -0 -0 -0 -0 -0 -0 -0 -0 -0 -0 -0 -0 -0 -0 -0 -0 -0 -0 -0 -0 -0 -0 -0 -0 -0
-0 -0 -0 -0 -0 -0 -0 -0 -0 -0 -0 -0 -0 -0 -0 -0 -0 -0 -0 -0 -0 -0 -0 -0 -0 -0 -0 -0 -0 -0 -0 -0 -0 -0 -0 -0 -0 -0 -0 -0 -0 -0 -0
-0 -0 -0 -0 -0 -0 -0 -0 -0 -0 -0 -0 -0 -0 -0 -0 -0 -0 -0 -0 -0 -0 -0 -0 -0 -0 -0 -0 -0 -0 -0 -0 -0 -0 -0 -0 -0 -0 -0 -0 -0 -0 -0
-0 -0 -0 -0 -0 -0 -0 -0 -0 -0 -0 -0 -0 -0 -0 -0 -0 -0 -0 -0 -0 -0 -0 -0 -0 -0 -0 -0 -0 -0 -0 -0 -0 -0 -0 -0 -0 -0 -0 -0 -0 -0 -0
-12 -0 -0 -0 -0 -0 -0 -0 -0 -0 -0 -0 -0 -0 -0 -0 -0 -0 -0 -0 -0 -0 -0 -0 -0 -0 -0 -0 -0 -0 -0 -0 -0 -0 -0 -0 -0 -0 -0 -0 -0 -0 -0
Wind_Speed
13 14 14 14 14 16 17 17 20 22 23 22 20 17 16 15 14 14 16 19 21 21 21 21 22 23 23 18 16 15 14 10 7 12 13 17 14 11 10 12 12 5 5
15 14 14 15 15 16 17 18 21 22 23 22 20 17 17 16 13 13 12 17 20 20 23 24 21 5 14 19 18 16 9 9 10 16 13 13 14 11 11 11 8 7 0
15 15 16 16 17 17 19 20 22 23 23 23 20 17 14 14 12 12 11 13 14 23 23 21 24 10 16 18 13 16 9 4 4 11 12 10 8 11 8 6 3 2 7
17 18 18 19 19 20 22 22 24 24 24 24 21 18 13 14 10 10 9 10 10 23 21 22 26 2 19 18 10 5 7 5 6 6 10 9 11 10 6 6 0 3 4
19 20 20 21 22 23 23 24 25 26 25 24 25 22 17 14 11 8 6 7 12 19 22 23 22 25 5 8 4 7 5 6 11 10 12 11 10 8 6 1 4 7 3
20 23 23 23 23 25 24 24 25 25 25 25 25 24 24 15 13 8 10 9 11 14 17 19 12 29 11 8 4 6 5 11 10 13 16 20 17 5 9 15 8 8 7
24 24 24 24 24 25 25 25 24 24 22 23 21 21 21 11 11 11 12 12 11 16 12 5 4 24 22 3 6 10 6 5 7 10 12 15 12 10 11 13 15 17 14
24 25 25 25 25 26 25 24 24 23 23 22 21 20 12 11 14 10 11 11 8 7 7 9 6 5 7 19 11 15 6 21 24 14 6 11 9 21 25 21 17 13 12
25 25 26 26 27 27 26 24 22 23 23 21 21 22 22 14 13 7 7 8 7 4 5 5 7 20 25 26 20 10 8 15 17 13 10 19 27 26 18 18 15 12 10
25 26 26 26 26 26 25 24 22 23 23 23 23 24 27 28 23 14 11 1 2 5 6 10 24 20 26 23 15 21 28 21 7 23 9 1 6 20 17 9 12 10 10
25 26 26 26 25 25 24 24 24 24 25 25 24 24 26 28 27 26 25 22 19 11 8 35 31 33 32 23 18 25 25 31 31 27 17 10 11 11 9 8 9 9 9
25 25 26 25 25 25 25 24 24 25 26 26 26 26 26 26 27 27 27 29 31 28 34 34 33 32 30 25 21 18 24 16 15 11 9 9 9 8 8 9 10 11 12
25 25 25 24 23 24 24 23 24 25 26 27 26 26 27 26 27 28 28 30 31 31 31 31 31 30 28 25 23 22 6 4 8 10 10 9 9 9 10 10 11 12 14
24 24 24 23 24 24 26 26 26 26 26 27 27 27 27 27 27 28 28 28 28 26 28 27 27 27 26 24 20 19 12 11 10 9 9 8 9 9 9 9 9 10 12
25 22 22 23 24 24 27 28 28 28 27 27 27 28 28 28 28 28 28 28 27 27 26 25 24 22 19 16 13 10 8 8 7 7 7 7 7 7 7 7 7 8 11
24 23 21 22 23 24 25 29 28 28 30 29 27 27 27 26 26 26 25 24 23 22 21 20 19 18 16 12 7 4 3 4 4 4 4 5 4 4 5 5 6 8 9
24 23 20 20 21 22 23 26 28 29 30 29 28 26 26 25 25 23 21 19 18 18 20 18 17 15 14 12 10 8 8 6 3 3 2 2 2 3 3 4 5 7 9
22 22 19 20 20 21 21 22 24 23 21 21 21 20 23 21 19 16 14 10 10 14 15 12 11 12 11 12 10 9 8 6 2 2 1 1 2 3 3 3 3 5 8
19 19 19 16 15 15 17 19 19 19 17 13 2 5 3 3 4 7 11 10 11 13 13 13 13 9 9 9 9 9 7 6 6 3 2 4 4 5 7 6 7 10 11
18 17 16 11 10 9 11 14 14 15 13 10 7 6 4 3 4 5 7 8 10 10 10 13 14 14 9 5 5 5 5 5 5 5 5 6 6 6 7 7 7 8 12
13 11 17 12 13 14 10 10 8 8 8 8 8 6 7 7 8 8 9 10 10 9 9 9 8 8 8 7 7 6 7 7 7 8 8 9 8 8 7 7 8 6 7
14 14 14 15 12 13 14 11 10 9 9 8 8 9 8 8 6 6 7 8 9 9 8 8 7 7 7 8 9 9 10 9 10 10 10 9 8 8 9 9 6 7 9
15 18 17 17 14 14 12 13 13 13 12 10 11 12 12 10 9 8 8 9 9 9 10 9 9 8 8 8 8 9 10 11 11 10 10 10 9 9 8 8 7 8 8
17 18 21 20 19 17 17 17 13 14 14 13 13 13 12 12 12 12 12 13 13 12 11 11 10 10 9 9 9 9 9 9 9 10 10 10 10 9 8 8 7 7 7
19 23 23 25 24 24 23 18 19 19 15 15 17 18 20 16 14 13 14 14 13 11 9 9 9 9 11 11 10 10 10 11 10 10 10 10 10 10 8 7 6 6 7
19 20 26 28 28 30 32 31 26 26 18 17 19 20 19 18 16 14 13 11 10 10 10 10 11 11 11 12 12 12 11 11 10 9 9 9 10 9 8 6 4 5 6
Wind_Direction
92 90 80 83 76 73 68 82 116 119 135 171 184 206 199 197 205 211 207 193 179 178 179 160 162 196 209 218 216 212 209 206 109 108 144 127 125 127 123 165 189 175 207
96 89 88 91 88 83 86 105 132 123 136 166 186 208 203 195 214 210 211 191 180 179 141 138 96 61 212 200 202 204 200 194 118 116 127 118 145 120 133 169 186 89 346
98 95 94 93 100 94 108 120 132 128 134 154 178 208 218 210 215 211 213 198 195 147 154 180 113 200 198 201 207 197 193 194 126 115 166 142 159 151 146 153 158 30 262
104 107 105 109 107 103 121 121 133 133 132 141 178 197 220 204 228 226 225 217 210 142 158 167 155 184 195 202 205 190 201 129 121 153 135 155 155 180 172 92 316 291 35
111 114 113 110 104 103 104 113 120 123 133 138 133 173 202 216 227 250 271 237 196 165 160 159 168 174 200 192 162 206 169 165 108 105 133 143 141 125 101 212 86 74 8
114 129 123 108 100 101 93 97 104 108 125 134 134 138 150 217 230 258 241 244 221 192 180 176 195 108 186 181 139 107 165 123 113 101 121 123 117 130 95 104 94 84 51
130 132 124 113 106 104 106 108 112 120 160 138 165 172 177 248 247 250 246 236 230 200 205 67 73 150 157 123 83 94 146 135 168 129 118 118 119 110 99 103 102 101 85
132 130 125 118 115 119 115 112 129 137 146 143 126 157 241 249 229 257 249 234 246 244 231 113 193 61 62 97 97 91 136 183 182 198 103 96 91 115 125 115 99 80 70
134 133 130 126 124 132 127 132 136 135 137 145 140 142 153 236 237 290 256 235 230 231 200 210 77 79 96 95 91 99 173 192 196 208 212 187 128 122 101 100 96 85 53
138 137 136 135 134 137 133 136 139 139 141 142 146 145 136 133 168 207 222 292 235 217 195 84 144 92 101 174 188 186 167 189 188 178 202 174 71 105 101 61 87 74 50
140 142 142 143 141 142 133 133 134 135 138 144 150 152 144 142 148 155 159 171 196 204 207 154 162 149 149 174 184 174 174 151 149 118 91 63 77 83 67 6 20 32 41
141 142 145 144 145 143 139 131 131 134 138 145 147 146 152 150 147 149 149 143 155 168 155 154 153 152 156 169 181 188 101 85 91 83 71 58 55 48 32 27 16 11 5
143 143 145 145 143 146 143 135 133 142 146 150 152 153 154 160 159 155 153 148 146 146 154 158 159 160 167 183 191 194 59 286 61 74 75 62 50 47 46 35 29 30 21
147 147 147 146 148 149 156 156 151 150 151 155 158 160 160 160 159 157 157 157 160 169 165 174 172 168 176 156 124 124 94 90 82 77 71 56 62 64 41 53 43 34 21
153 148 149 151 151 151 166 172 170 172 165 162 165 165 161 160 158 153 148 148 148 147 137 145 144 137 128 122 116 109 99 96 87 77 76 67 60 49 38 43 34 22 3
157 154 153 153 154 156 157 178 210 198 185 186 181 171 170 170 150 147 146 143 137 131 136 138 141 141 140 131 117 104 93 102 97 84 74 72 69 69 53 39 22 5 4
162 160 154 155 155 155 156 162 171 208 207 183 181 170 169 162 157 153 145 137 137 138 156 152 150 147 149 148 145 146 150 148 127 123 99 73 41 32 28 14 7 359 352
165 163 159 159 160 160 160 160 163 163 161 163 169 165 171 165 158 150 144 131 135 154 157 152 153 156 154 161 161 164 162 162 201 248 282 299 322 332 334 343 354 350 349
167 166 164 161 162 165 162 164 165 164 162 156 199 265 250 167 156 156 160 166 170 175 177 178 175 170 166 167 170 175 183 187 186 207 262 293 301 303 310 321 336 341 342
174 172 172 174 174 179 177 171 172 173 172 172 176 181 232 229 207 198 196 194 187 187 186 186 187 188 190 204 202 196 212 224 238 252 267 278 283 285 298 313 331 343 347
193 199 180 188 178 178 190 194 209 198 192 199 199 230 205 207 202 199 200 199 202 208 205 201 205 211 215 228 244 237 232 248 250 263 268 285 290 281 282 287 295 313 333
219 230 208 194 198 190 190 201 215 213 215 233 251 268 219 215 229 216 210 209 212 216 227 236 239 238 243 242 249 249 246 249 254 253 260 268 276 283 287 288 288 310 327
235 241 240 239 236 242 230 209 207 209 210 232 261 269 271 260 259 263 273 276 267 260 266 261 262 259 258 254 252 252 246 248 246 252 255 263 268 274 280 274 280 297 315
243 243 247 247 246 246 250 254 232 220 217 227 244 253 260 263 261 266 275 286 288 282 272 263 254 243 251 252 253 255 256 264 268 260 254 255 263 265 273 273 276 287 314
252 256 254 253 254 255 258 255 262 260 245 244 253 260 267 268 267 269 278 281 281 278 267 264 263 253 244 248 257 262 267 262 264 267 261 258 265 257 262 271 266 277 311
252 261 263 260 259 260 261 262 263 267 262 260 260 262 262 264 266 270 269 263 264 273 273 274 270 262 269 269 265 271 275 267 264 259 272 267 264 258 251 249 230 289 308